Location: Newark
(40.9833°N, 0.0333°W)
Time: 09:16:36
(UTC+00:00)

Transit 4A - Pass Details

Date: 29 October 2020
Orbit: 862 x 982 km, 66.8° (Epoch: 26 November)

Event Time Altitude Azimuth Distance (km) Brightness Sun altitude
Rises 17:12:21 0° 274° (W) 3,632 12.6 -3.2°
Reaches altitude 10° 17:16:39 10° 302° (WNW) 2,712 11.0 -4.0°
Maximum altitude 17:19:22 13° 328° (NNW) 2,522 10.4 -4.5°
Drops below altitude 10° 17:22:06 10° 354° (N) 2,735 10.3 -5.0°
Sets 17:26:30 0° 21° (NNE) 3,694 10.7 -5.8°
